www.pogodaiklimat.ru

Погода и климат >> Архив погоды >> Украина >> Новоград-Волынский


ПОГОДА в Новограде-Волынском

  • Прогноз погоды в Новограде-Волынском
  • Монитор погоды в Новограде-Волынском

АРХИВ ПОГОДЫ в Новограде-Волынском

Время (UTC), дата Ветер
(напр.,м/с)
 
Видим.   Явления Облачность Т
(С)
Тd
(С)
f
(%)
Тe
(С)
Тes
(С)
Комфортность P
(гПа)
Po
(гПа)
Тmin
(С)
Tmax
(С)
R
(мм)
R24
(мм)
S
(см)
15 15.09 ЮЗ 2 10 км 8/0
[Ac trans]
+19.3 +1.7 31 +20 +20 1019.0 993.4
18 15.09 ЮЗ 2 10 км 3/0
[Ci fib]
+14.9 +2.4 43 +15 +15 1017.0 991.0 +20.9
21 15.09 Ю 2 10 км 3/0
[Ci fib]
+12.8 +1.8 47 +12 +12 1016.0 989.9
00 16.09 ЮЗ 2 10 км 3/0
[Ci fib]
+11.7 +2.4 53 +11 +11 1015.0 988.8
03 16.09 ЮЗ 2 10 км 3/0
[Ci sp]
+11.4 +5.5 67 +10 +10 1014.0 987.8
06 16.09 ЮЗ 2 10 км 8/0
[Ac trans]
+14.4 +8.6 68 +14 +14 1013.0 987.1 +11.3
09 16.09 ЮЗ 3 10 км 8/0
[Ac trans Ci fib]
+19.4 +8.7 50 +20 +20 1012.0 986.6
12 16.09 З 4 10 км 8/3 1000 м
[Cu med, cong Ac trans]
+21.8 +4.8 33 +22 +22 комфорт 1011.0 985.8
15 16.09 З 3 10 км 8/0
[Ac trans]
+20.0 +5.6 39 +21 +21 комфорт 1010.0 984.7
18 16.09 З 1 10 км 9/0
[Ac trans]
+16.7 +5.6 48 +18 +18 1011.0 985.4 +22.2
21 16.09 З 1 10 км 8/0
[Ac trans Ci sp]
+14.5 +5.8 56 +15 +15 1011.0 985.2
00 17.09 З 1 10 км 9/0
[Ac trans Ci sp]
+12.0 +5.4 64 +12 +12 1011.0 984.9
03 17.09 З 2 10 км ясно +9.5 +5.1 74 +8 +8 1011.0 984.7
06 17.09 ЮЗ 2 10 км 3/0
[Ci fib]
+11.0 +5.5 69 +10 +11 1012.0 985.8 +9.4
09 17.09 З 3 10 км 3/3 1000 м
[Cu med, cong]
+15.7 +3.5 44 +15 +20 1011.0 985.3
12 17.09 ЮЗ 3 10 км 3/3 1000 м
[Cu med, cong]
+17.9 +0.1 30 +18 +22 1009.0 983.5
15 17.09 ЮЗ 2 10 км 8/5 1000 м
[Cu med, cong Ci fib]
+17.0 +1.4 35 +17 +17 1007.0 981.5
18 17.09 З 1 10 км 8/8 840 м
[Sc]
+13.9 +3.1 48 +14 +14 1007.0 981.2 +18.6
21 17.09 ЮЗ 2 10 км 6/0
[Ac trans Ci sp]
+12.6 +3.5 54 +12 +12 1005.0 979.1
00 18.09 Ю 2 10 км 3/0
[Ci sp]
+11.3 +4.3 62 +10 +10 1003.0 977.1
03 18.09 ЮЗ 3 10 км в посл. час ливневой дождь 9/9 660 м
[Cb calv]
+8.1 +5.2 82 +5 +5 1005.0 978.7
06 18.09 З 3 10 км в посл. час ливневой дождь 8/4 600 м
[Cb calv Ac trans]
+6.5 +4.0 84 +3 +3 1007.0 980.5 +6.4 1
09 18.09 З 5 10 км {ливн. осадки} 8/8 870 м
[Cu med, cong]
+10.1 +4.0 66 +7 +7 1008.0 981.8
12 18.09 З 5 10 км слаб. ливневой дождь 10/10 630 м
[Cb cap]
+8.8 +6.4 85 +5 +5 1009.0 982.7 1
15 18.09 З 4 10 км слаб. ливневой дождь 9/9 630 м
[Cb cap]
+9.5 +7.3 86 +7 +7 1012.0 985.7
18 18.09 З 3 10 км {ливн. осадки} 9/4 600 м
[Sc Ac trans]
+8.6 +6.4 86 +6 +6 1015.0 988.5 +11.1 2
21 18.09 ЮЗ 2 10 км 5/0
[Ac trans]
+7.8 +5.1 83 +6 +6 1017.0 990.4
00 19.09 ЮЗ 2 10 км 3/0
[Ac trans]
+6.5 +3.7 82 +4 +4 1017.0 990.3
03 19.09 ЮЗ 1 10 км ясно +5.4 +3.4 87 +4 +4 1018.0 991.1
06 19.09 ЮЗ 2 10 км ясно +7.3 +4.6 83 +5 +7 1019.0 992.3 +5.3
09 19.09 ЮЗ 3 10 км 8/8 750 м
[Cu med, cong]
+11.2 +4.9 65 +10 +10 1019.0 992.7
12 19.09 З 2 10 км {ливн. осадки} 8/8 630 м
[Cb calv]
+11.5 +6.8 73 +10 +10 1019.0 992.7 0.7
15 19.09 ЮЗ 2 10 км {ливн. осадки} 6/6 660 м
[Cb calv]
+9.1 +7.4 89 +7 +8 1020.0 993.5
18 19.09 штиль 0 10 км {ливн. осадки} ясно +7.2 +4.8 85 +6 +6 1021.0 994.2 +14.2 1
21 19.09 штиль 0 10 км 3 балла +5.4 +3.7 89 +4 +4 1021.0 994.1
00 20.09 З 2 10 км 8/0
[Ac trans]
+6.5 +4.7 88 +4 +4 1021.0 994.2
03 20.09 З 1 10 км 10 баллов +6.0 +4.3 89 +5 +5 1021.0 994.1
06 20.09 СЗ 2 10 км 8/0
[Ac trans]
+6.5 +4.7 88 +4 +4 1021.0 994.2 +5.3
09 20.09 З 4 10 км 8/8 800 м
[Sc]
+7.8 +3.5 74 +5 +6 1021.2 994.5
12 20.09 З 4 10 км 6/6 930 м
[Cu med, cong]
+10.4 +1.2 53 +8 +10 1020.0 993.5
15 20.09 З 3 10 км {ливн. осадки} 4/4 1000 м
[Cu med, cong]
+9.0 +2.3 63 +7 +7 1021.0 994.4
18 20.09 З 2 10 км {ливн. осадки} 8/4 600 м
[Cb calv Ac trans]
+7.8 +2.1 67 +6 +6 1022.0 995.3 +12.4 0.6
21 20.09 З 1 10 км 4/0
[Ac trans]
+4.6 +0.4 74 +3 +3 1023.0 995.9
00 21.09 З 1 10 км ясно +2.8 -0.1 81 +1 +1 1024.0 996.7
03 21.09 штиль 0 4000 м дымка ясно +0.7 -0.4 92 -1 -1 1025.0 997.5
06 21.09 ЮЗ 1 10 км 8/0
[Ac trans Ci fib]
+3.4 +1.6 88 +2 +2 1025.0 997.8 +0.6
09 21.09 ЮЗ 2 10 км 9/0
[Ac trans]
+10.3 +5.5 72 +9 +9 1024.0 997.5
12 21.09 ЮЗ 2 10 км 10/5 600 м
[Cb calv Ac und]
+11.6 +4.8 63 +11 +11 1022.0 995.6
15 21.09 ЮЗ 1 4000 м слаб. морось 10/10 480 м
[St]
+9.6 +8.2 91 +9 +9 1020.0 993.5
18 21.09 З 1 4000 м слаб. морось 10/10 420 м
[St]
+11.0 +9.7 92 +11 +11 1020.0 993.7 +12.7 0.6
21 21.09 ЮЗ 2 10 км {морось} 10/10 420 м
[St]
+12.1 +9.7 85 +11 +11 1019.0 992.8
00 22.09 З 3 10 км {морось} 10/10 480 м
[St]
+12.3 +8.9 80 +11 +11 1018.0 991.8
03 22.09 З 2 10 км 10/10 750 м
[Sc]
+12.0 +8.5 79 +11 +11 1018.0 991.8
06 22.09 З 2 10 км 10 баллов +12.2 +8.5 78 +11 +11 1018.0 991.8 +11.0
09 22.09 З 3 10 км 10/10 800 м
[Sc]
+14.2 +8.8 70 +13 +13 1018.0 992.0
12 22.09 ЮЗ 3 10 км 6 баллов +16.3 +8.8 61 +16 +18 1017.0 991.2

 

Местоположение метеостанции Новоград-Волынский (Житомирская область, Украина): широта 50.60 долгота 27.63 высота над уровнем моря 218 м.

В архиве по умолчанию представлена погода в Новограде-Волынском за последнюю неделю. Архивные данные за месяц целиком и за предыдущие месяцы, начиная с января 2011 года, Вы можете получить, выбрав интересующий диапазон дат из раскрывающегося списка и нажав кнопку "Ввод!".


*Определитесь, кто Вы:
робот инопланетянин человек

Внимание! Время в таблицах - всемирное. Для получения местного времени необходимо прибавить поправку, которая равна 2 ч.

Смотрите также архив погоды в соседних городах и на ближайших метеорологических станциях:

Погода в Шепетовке (Хмельницкая область, Украина) (64 км)
Погода в Олевске (Житомирская область, Украина) (69 км)
Погода в Коростени (Житомирская область, Украина) (82 км)
Погода в Житомире (Житомирская область, Украина) (88 км)
Погода в Сарнах (Ровенская область, Украина) (104 км)
Погода в Ровно (Ровенская область, Украина) (106 км)
Погода в Овруче (Житомирская область, Украина) (114 км)
Погода в Ямполе (Хмельницкая область, Украина) (121 км)
Погода в Белополе (Винницкая область, Украина) (123 км)
Погода в Дубно (Ровенская область, Украина) (134 км)

Пояснения к столбцам:

Ветер - указаны скорость ветра в м/с - средняя за 10 мин, порывы в срок и между сроками (в фигурных скобках) и направление, откуда дует ветер: С - северный, СВ - северо-восточный, В - восточный, ЮВ - юго-восточный, Ю - южный, ЮЗ - юго-западный, З - западный, СЗ - северо-западный.
Видимость - горизонтальная дальность видимости в метрах или километрах. При видимости от 1 до 10 км при отсутствии осадков обычно наблюдается дымка, при ухудшении видимости до 1 км и менее - туман. В сухую погоду видимость может ухудшаться дымом, пылью или мглою.
Явления - указаны атмосферные явления, наблюдавшиеся в срок или в последний час перед сроком; фигурными скобками обозначены явления, наблюдавшиеся между сроками (за 1-3 часа до срока); квадратными скобками обозначены град или гололедные отложения с указанием их диаметра в мм.
Облачность - указаны через наклонную черту общая и нижняя облачность в баллах и высота нижней границы облаков в метрах; квадратными скобками обозначены формы облаков: Ci - перистые, Cs - перисто-слоистые, Cc - перисто-кучевые, Ac - высококучевые, As - высокослоистые, Sc - слоисто-кучевые, Ns - слоисто-дождевые, Cu - кучевые, Cb - кучево-дождевые. Подробнее классификацию облаков см. в Атласе облаков (PDF).
T - Температура воздуха - температура, измеренная на высоте 2 м над землей.
Td - Температура точки росы - температура, при понижении до которой содержащийся в воздухе водяной пар достигнет насыщения.
f - Относительная влажность воздуха - влажноcть воздуха, измеренная на высоте 2 м над землей.
Te - Эффективная температура - температура, которую ощущает одетый по сезону человек в тени. Характеристика душности погоды. При расчете учитывается влияние влажности воздуха и скорости ветра на теплоощущения человека.
Tes - Эффективная температура на солнце - температура, которую ощущает человек, с поправкой на солнечный нагрев. Характеристика знойности погоды. Зависит от высоты солнца над горизонтом, облачности и скорости ветра. Ночью, в пасмурную погоду, а также при ветре 12 м/с и более поправка равна нулю.
P - Атмосферное давление - приведенное к уровню моря атмосферное давление.
Po - Атмосферное давление - измеренное на уровне метеостанции атмосферное давление.
Tmin - Минимальная температура - минимум температуры воздуха на высоте 2 м над землей.
Tmax - Максимальная температура - максимум температуры воздуха на высоте 2 м над землей.
R - Количество осадков - Количество выпавших осадков за период времени, мм. При наведении курсора мыши на число - период времени, за который выпало указанное количество осадков.
R24 - Количество осадков - Количество выпавших осадков за 24 часа, мм.
S - Снежный покров - Высота снежного покрова, см. При наведении курсора мыши на число - состояние снежного покрова и степень покрытия местности в баллах.